| time (UTC) | temp F | wind direction | speed MPH | gust MPH | rain 1hr in | rain 24hr in | rain mn in | humidity % | barometer mb |
| 20260505223353 | 62 | 338 | 1.0 | 4.0 | 0.00 | 0.00 | 0.00 | 56 | 1015.4 |
| 20260505222353 | 62 | 334 | 1.0 | 3.0 | 0.00 | 0.00 | 0.00 | 55 | 1015.5 |
| 20260505221352 | 62 | 332 | 1.0 | 4.0 | 0.00 | 0.00 | 0.00 | 55 | 1015.5 |
| 20260505220352 | 62 | 319 | 0.0 | 5.0 | 0.00 | 0.00 | 0.00 | 55 | 1015.8 |
| 20260505214351 | 62 | 5 | 1.0 | 5.0 | 0.00 | 0.00 | 0.00 | 55 | 1015.7 |
| 20260505213350 | 62 | 111 | 3.0 | 3.0 | 0.00 | 0.00 | 0.00 | 55 | 1015.9 |
| 20260505212420 | 62 | 42 | 0.0 | 4.0 | 0.00 | 0.00 | 0.00 | 56 | 1015.9 |
| 20260505211350 | 62 | 5 | 1.0 | 2.0 | 0.00 | 0.00 | 0.00 | 55 | 1015.9 |
| 20260505210349 | 62 | 5 | 1.0 | 2.0 | 0.00 | 0.00 | 0.00 | 56 | 1016.0 |
| 20260505203351 | 61 | 355 | 2.0 | 5.0 | 0.00 | 0.00 | 0.00 | 56 | 1016.0 |
| 20260505202350 | 61 | 253 | 0.0 | 4.0 | 0.00 | 0.00 | 0.00 | 56 | 1016.0 |
| 20260505201349 | 61 | 48 | 2.0 | 4.0 | 0.00 | 0.00 | 0.00 | 57 | 1016.1 |
| 20260505200419 | 61 | 347 | 1.0 | 3.0 | 0.00 | 0.00 | 0.00 | 57 | 1016.1 |
| 20260505195349 | 61 | 94 | 0.0 | 4.0 | 0.00 | 0.00 | 0.00 | 57 | 1016.2 |
| 20260505194349 | 60 | 89 | 2.0 | 3.0 | 0.00 | 0.00 | 0.00 | 57 | 1016.2 |
| 20260505193418 | 60 | 59 | 0.0 | 4.0 | 0.00 | 0.00 | 0.00 | 58 | 1016.2 |
| 20260505192348 | 59 | 350 | 4.0 | 4.0 | 0.00 | 0.00 | 0.00 | 58 | 1016.3 |
| 20260505191347 | 59 | 347 | 2.0 | 4.0 | 0.00 | 0.00 | 0.00 | 59 | 1016.3 |
| 20260505190347 | 59 | 5 | 2.0 | 4.0 | 0.00 | 0.00 | 0.00 | 59 | 1016.2 |
| 20260505185417 | 59 | 5 | 2.0 | 4.0 | 0.00 | 0.00 | 0.00 | 60 | 1016.2 |
| 20260505184416 | 58 | 360 | 3.0 | 5.0 | 0.00 | 0.00 | 0.00 | 60 | 1016.1 |
| 20260505183416 | 58 | 344 | 2.0 | 4.0 | 0.00 | 0.00 | 0.00 | 59 | 1016.2 |
| 20260505182416 | 59 | 355 | 1.0 | 5.0 | 0.00 | 0.00 | 0.00 | 59 | 1016.2 |
| 20260505180415 | 59 | 312 | 1.0 | 3.0 | 0.00 | 0.00 | 0.00 | 59 | 1016.1 |
| 20260505175414 | 59 | 304 | 0.0 | 2.0 | 0.00 | 0.00 | 0.00 | 59 | 1016.1 |
| 20260505174414 | 59 | 111 | 2.0 | 4.0 | 0.00 | 0.00 | 0.00 | 59 | 1016.0 |
| 20260505173413 | 59 | 134 | 0.0 | 2.0 | 0.00 | 0.00 | 0.00 | 61 | 1015.9 |
| 20260505172412 | 58 | 106 | 0.0 | 3.0 | 0.00 | 0.00 | 0.00 | 62 | 1015.9 |
| 20260505171412 | 57 | 108 | 3.0 | 4.0 | 0.00 | 0.00 | 0.00 | 63 | 1015.9 |
| 20260505170412 | 57 | 94 | 1.0 | 4.0 | 0.00 | 0.00 | 0.00 | 64 | 1015.8 |
| 20260505160410 | 55 | 238 | 0.0 | 0.0 | 0.00 | 0.00 | 0.00 | 68 | 1015.8 |
| 20260505151406 | 54 | 229 | 0.0 | 0.0 | 0.00 | 0.00 | 0.00 | 69 | 1015.7 |
| 20260505140401 | 54 | 190 | 3.0 | 3.0 | 0.00 | 0.00 | 0.00 | 69 | 1015.0 |
| 20260505124400 | 54 | 188 | 0.0 | 0.0 | 0.00 | 0.00 | 0.00 | 68 | 1014.6 |
| 20260505123400 | 54 | 188 | 0.0 | 0.0 | 0.00 | 0.00 | 0.00 | 68 | 1014.7 |
| 20260505121359 | 54 | 188 | 0.0 | 0.0 | 0.00 | 0.00 | 0.00 | 68 | 1014.6 |
| 20260505120359 | 54 | 188 | 0.0 | 3.0 | 0.00 | 0.00 | 0.00 | 68 | 1014.5 |
| 20260505115359 | 54 | 222 | 0.0 | 4.0 | 0.00 | 0.00 | 0.00 | 68 | 1014.6 |
| 20260505114358 | 54 | 175 | 0.0 | 0.0 | 0.00 | 0.00 | 0.00 | 68 | 1014.5 |
| 20260505113358 | 54 | 174 | 0.0 | 1.0 | 0.00 | 0.00 | 0.00 | 68 | 1014.5 |
| 20260505112359 | 54 | 171 | 0.0 | 2.0 | 0.00 | 0.00 | 0.00 | 68 | 1014.5 |
| 20260505111357 | 54 | 171 | 0.0 | 1.0 | 0.00 | 0.00 | 0.00 | 68 | 1014.5 |
| 20260505110356 | 54 | 170 | 0.0 | 2.0 | 0.00 | 0.00 | 0.00 | 68 | 1014.5 |
| 20260505101354 | 54 | 167 | 0.0 | 3.0 | 0.00 | 0.00 | 0.00 | 68 | 1014.3 |
| 20260505100353 | 54 | 183 | 0.0 | 5.0 | 0.00 | 0.00 | 0.00 | 68 | 1014.3 |
| 20260505094421 | 54 | 169 | 0.0 | 3.0 | 0.00 | 0.00 | 0.00 | 68 | 1014.2 |
| 20260505093421 | 54 | 174 | 0.0 | 4.0 | 0.00 | 0.00 | 0.00 | 68 | 1014.0 |
| 20260505091350 | 54 | 141 | 2.0 | 4.0 | 0.00 | 0.00 | 0.00 | 68 | 1014.0 |
| 20260505090419 | 54 | 189 | 1.0 | 4.0 | 0.00 | 0.00 | 0.00 | 68 | 1014.0 |
| 20260505085349 | 54 | 163 | 0.0 | 5.0 | 0.00 | 0.00 | 0.00 | 68 | 1013.9 |
| 20260505084348 | 54 | 190 | 3.0 | 5.0 | 0.00 | 0.00 | 0.00 | 68 | 1013.9 |
| 20260505083419 | 54 | 171 | 4.0 | 6.0 | 0.00 | 0.00 | 0.00 | 68 | 1014.0 |
| 20260505082349 | 54 | 190 | 3.0 | 6.0 | 0.00 | 0.00 | 0.00 | 68 | 1013.8 |
| 20260505081417 | 54 | 177 | 0.0 | 4.0 | 0.00 | 0.00 | 0.00 | 68 | 1013.8 |
| 20260505080416 | 54 | 215 | 1.0 | 4.0 | 0.00 | 0.00 | 0.00 | 68 | 1013.8 |
| 20260505075416 | 53 | 184 | 0.0 | 4.0 | 0.00 | 0.00 | 0.00 | 68 | 1013.7 |
| 20260505073415 | 53 | 146 | 1.0 | 6.0 | 0.00 | 0.00 | 0.00 | 68 | 1013.6 |
| 20260505072414 | 53 | 214 | 5.0 | 7.0 | 0.00 | 0.00 | 0.00 | 68 | 1013.4 |
| 20260505070413 | 53 | 163 | 0.0 | 4.0 | 0.00 | 0.00 | 0.00 | 67 | 1013.4 |
| 20260505065413 | 53 | 166 | 2.0 | 5.0 | 0.00 | 0.00 | 0.00 | 66 | 1013.2 |
| 20260505064412 | 53 | 177 | 2.0 | 5.0 | 0.00 | 0.00 | 0.00 | 65 | 1013.3 |
| 20260505063412 | 53 | 184 | 0.0 | 5.0 | 0.00 | 0.00 | 0.00 | 65 | 1013.1 |
| 20260505062411 | 53 | 193 | 0.0 | 4.0 | 0.00 | 0.00 | 0.00 | 64 | 1013.1 |
| 20260505060411 | 54 | 205 | 0.0 | 3.0 | 0.00 | 0.00 | 0.00 | 63 | 1013.3 |
| 20260505055410 | 54 | 204 | 2.0 | 3.0 | 0.00 | 0.00 | 0.00 | 63 | 1013.2 |
| 20260505054409 | 54 | 205 | 0.0 | 4.0 | 0.00 | 0.00 | 0.00 | 63 | 1013.2 |
| 20260505053409 | 55 | 185 | 0.0 | 5.0 | 0.00 | 0.00 | 0.00 | 63 | 1013.2 |
| 20260505052409 | 55 | 171 | 3.0 | 6.0 | 0.00 | 0.00 | 0.00 | 62 | 1013.2 |
| 20260505050407 | 56 | 175 | 1.0 | 3.0 | 0.00 | 0.00 | 0.00 | 60 | 1012.9 |
| 20260505041405 | 58 | 161 | 0.0 | 4.0 | 0.00 | 0.00 | 0.00 | 58 | 1012.2 |
| 20260505040404 | 59 | 110 | 2.0 | 3.0 | 0.00 | 0.00 | 0.00 | 58 | 1011.9 |
| 20260505035403 | 59 | 219 | 1.0 | 5.0 | 0.00 | 0.00 | 0.00 | 57 | 1011.6 |
| 20260505034403 | 60 | 241 | 4.0 | 7.0 | 0.00 | 0.00 | 0.00 | 57 | 1011.7 |
| 20260505033403 | 60 | 254 | 5.0 | 12.0 | 0.00 | 0.00 | 0.00 | 57 | 1011.5 |
| 20260505032403 | 60 | 273 | 5.0 | 13.0 | 0.00 | 0.00 | 0.00 | 56 | 1011.3 |
| 20260505031403 | 61 | 294 | 13.0 | 14.0 | 0.00 | 0.00 | 0.00 | 55 | 1010.9 |
| 20260505030403 | 62 | 263 | 3.0 | 12.0 | 0.00 | 0.00 | 0.00 | 54 | 1010.8 |
| 20260505025402 | 63 | 278 | 8.0 | 12.0 | 0.00 | 0.00 | 0.00 | 53 | 1010.6 |
| 20260505024402 | 65 | 360 | 11.0 | 11.0 | 0.00 | 0.00 | 0.00 | 51 | 1010.5 |
| 20260505021401 | 67 | 275 | 4.0 | 13.0 | 0.00 | 0.00 | 0.00 | 49 | 1010.5 |
| 20260505020402 | 68 | 263 | 6.0 | 12.0 | 0.00 | 0.00 | 0.00 | 49 | 1010.4 |
| 20260505015401 | 68 | 329 | 6.0 | 12.0 | 0.00 | 0.00 | 0.00 | 48 | 1010.4 |
| 20260505014400 | 70 | 296 | 10.0 | 12.0 | 0.00 | 0.00 | 0.00 | 46 | 1010.4 |
| 20260505013359 | 72 | 267 | 7.0 | 10.0 | 0.00 | 0.00 | 0.00 | 46 | 1010.5 |
| 20260505012359 | 72 | 187 | 1.0 | 7.0 | 0.00 | 0.00 | 0.00 | 48 | 1010.6 |
| 20260505011358 | 73 | 212 | 2.0 | 9.0 | 0.00 | 0.00 | 0.00 | 48 | 1010.6 |
| 20260505010357 | 73 | 163 | 2.0 | 10.0 | 0.00 | 0.00 | 0.00 | 48 | 1010.7 |
| 20260505005357 | 72 | 198 | 4.0 | 7.0 | 0.00 | 0.00 | 0.00 | 48 | 1010.6 |
| 20260505004357 | 73 | 196 | 3.0 | 7.0 | 0.00 | 0.00 | 0.00 | 48 | 1010.9 |
| 20260505003357 | 72 | 159 | 4.0 | 7.0 | 0.00 | 0.00 | 0.00 | 48 | 1010.9 |
| 20260505001357 | 72 | 201 | 5.0 | 9.0 | 0.00 | 0.00 | 0.00 | 48 | 1010.8 |
| 20260505000358 | 72 | 182 | 4.0 | 5.0 | 0.00 | 0.00 | 0.00 | 48 | 1010.9 |
| 20260504235356 | 72 | 205 | 3.0 | 10.0 | 0.00 | 0.00 | 0.00 | 48 | 1011.1 |
| 20260504233356 | 71 | 211 | 2.0 | 7.0 | 0.00 | 0.00 | 0.00 | 48 | 1011.2 |
| 20260504232355 | 71 | 133 | 4.0 | 10.0 | 0.00 | 0.00 | 0.00 | 49 | 1011.1 |
| 20260504231355 | 71 | 174 | 4.0 | 7.0 | 0.00 | 0.00 | 0.00 | 49 | 1011.2 |
| 20260504230354 | 70 | 261 | 6.0 | 10.0 | 0.00 | 0.00 | 0.00 | 48 | 1011.5 |
| 20260504225352 | 70 | 223 | 3.0 | 11.0 | 0.00 | 0.00 | 0.00 | 50 | 1011.6 |
| 20260504224353 | 70 | 126 | 6.0 | 10.0 | 0.00 | 0.00 | 0.00 | 48 | 1011.6 |